Hourly Data Report for November 05, 2019

OTTAWA INTL A
ONTARIO
Current Station Operator: NAVCAN

45°19'00.000" N
75°40'00.000" W
114.90 m
6106001
71628
YOW

Download Data

Hourly Data (November 2019)
Hourly Data Report for November 5, 2019
TIME Temp Definition
°C
Dew Point Definition
°C
Rel Hum Definition
%
Wind Dir Definition
10's deg

Wind Spd Definition
km/h
Visibility Definition
km
Stn Press Definition
kPa
Hmdx Definition


Wind Chill Definition


Weather Definition


00:00 9.5 2.8 63 21 18 24.1 100.22     LegendNANA
01:00 9.0 2.8 65 18 16 24.1 100.19     Cloudy
02:00 9.0 2.6 64 18 16 24.1 100.16     LegendNANA
03:00 9.3 2.6 62 19 12 24.1 100.17     LegendNANA
04:00 9.5 2.9 63 18 17 24.1 100.18     Cloudy
05:00 8.3 4.3 76 18 24 24.1 100.23     LegendNANA
06:00 7.4 4.8 84 19 21 24.1 100.25     LegendNANA
07:00 7.3 5.2 86 18 18 24.1 100.22     Cloudy
08:00 7.5 5.6 88 19 17 24.1 100.25     LegendNANA
09:00 7.7 5.9 89 19 14 24.1 100.24     LegendNANA
10:00 8.2 6.3 87 19 18 24.1 100.19     Cloudy
11:00 8.6 6.6 87 18 13 24.1 100.14     LegendNANA
12:00 8.9 6.8 86 18 20 24.1 100.03     LegendNANA
13:00 9.4 7.0 85 21 12 24.1 99.99     Rain
14:00 9.6 -0.1 51 23 37 24.1 100.01     LegendNANA
15:00 9.4 -2.4 43 24 28 24.1 100.06     LegendNANA
16:00 7.9 -1.7 51 24 26 24.1 100.17     Mostly Cloudy
17:00 7.1 -1.9 53 25 27 24.1 100.26     LegendNANA
18:00 5.1 -1.8 61 25 17 24.1 100.35     LegendNANA
19:00 4.8 -1.2 65 23 16 24.1 100.47     Mostly Cloudy
20:00 4.1 -0.9 69 24 19 24.1 100.56     LegendNANA
21:00 2.1 -1.0 80 25 11 24.1 100.61     LegendNANA
22:00 2.9 -1.2 74 24 16 24.1 100.64     Mostly Cloudy
23:00 1.2 -1.9 80 23 10 24.1 100.58     LegendNANA

Notes on Data Quality.

Legend

  • E = Estimated
  • M = Missing
  • NA = Not Available*
  • [empty] = Indicates an unobserved value
Date modified: